FW8379 Weather Reports


time (UTC)temp
C
wind
direction
speed
KPH
gust
KPH
rain 1hr
cm
rain 24hr
cm
rain mn
cm
humidity
%
barometer
mb
20260505195331 6 293 3.2 4.8 0.00 0.33 0.33 91 1013.0
20260505194828 6 240 6.4 8.0 0.00 0.33 0.33 93 1013.0
20260505194325 5 283 0.0 8.0 0.00 0.33 0.33 93 1013.1
20260505193820 5 248 6.4 8.0 0.00 0.33 0.33 94 1013.1
20260505193319 6 244 0.0 0.0 0.00 0.33 0.33 95 1013.2
20260505192816 5 301 0.0 0.0 0.00 0.33 0.33 96 1013.1
20260505192315 5 113 0.0 0.0 0.00 0.33 0.33 96 1013.2
20260505191812 5 308 0.0 0.0 0.00 0.33 0.33 97 1013.5
20260505191310 4 324 0.0 0.0 0.13 0.33 0.33 96 1013.1
20260505190807 3 313 1.6 4.8 0.13 0.33 0.33 96 1013.5
20260505190302 3 339 3.2 8.0 0.00 0.30 0.30 97 1013.6
20260505185758 3 344 0.0 3.2 0.00 0.30 0.30 97 1013.6
20260505185254 3 2 0.0 0.0 0.18 0.30 0.30 97 1013.5
20260505184750 3 33 0.0 0.0 0.00 0.28 0.28 97 1013.6
20260505184248 3 87 4.8 8.0 0.13 0.28 0.28 97 1013.1
20260505183745 3 100 8.0 9.7 0.13 0.28 0.28 97 1013.2
20260505183242 4 72 0.0 0.0 0.18 0.25 0.25 97 1013.5
20260505182738 4 317 0.0 0.0 0.18 0.25 0.25 98 1013.2
20260505182235 4 80 11.3 12.9 0.13 0.23 0.23 97 1013.3
20260505181732 4 9 0.0 0.0 0.13 0.23 0.23 97 1013.2
20260505181229 4 258 0.0 0.0 0.00 0.20 0.20 97 1013.0
20260505180726 4 256 0.0 0.0 0.00 0.20 0.20 97 1012.8
20260505180222 3 223 0.0 0.0 0.00 0.20 0.20 97 1013.1
20260505175718 4 187 0.0 0.0 0.18 0.20 0.20 97 1012.6
20260505175215 4 201 3.2 9.7 0.18 0.20 0.20 97 1012.8
20260505174711 4 251 0.0 9.7 0.00 0.18 0.18 98 1012.8
20260505174209 4 161 8.0 12.9 0.00 0.18 0.18 98 1012.8
20260505173704 3 172 11.3 12.9 0.00 0.18 0.18 98 1012.8
20260505173201 3 199 4.8 9.7 0.00 0.18 0.18 98 1012.7
20260505172659 3 194 3.2 11.3 0.00 0.18 0.18 98 1013.1
20260505172155 3 176 8.0 11.3 0.00 0.18 0.18 98 1012.4
20260505171655 3 204 6.4 11.3 0.00 0.18 0.18 98 1013.0
20260505171153 3 184 8.0 12.9 0.00 0.18 0.18 98 1012.5
20260505170650 3 152 8.0 17.7 0.00 0.18 0.18 98 1012.8
20260505170146 3 183 8.0 14.5 0.00 0.18 0.18 98 1012.6
20260505165646 4 183 9.7 12.9 0.00 0.18 0.18 98 1012.6
20260505165143 3 260 0.0 9.7 0.00 0.18 0.18 99 1012.5
20260505164638 3 236 0.0 11.3 0.00 0.18 0.18 99 1012.6
20260505164136 3 170 4.8 8.0 0.00 0.18 0.18 98 1012.6
20260505163634 3 170 6.4 12.9 0.00 0.18 0.18 98 1012.6
20260505163132 3 204 8.0 9.7 0.00 0.18 0.18 98 1012.6
20260505162629 3 216 4.8 9.7 0.00 0.18 0.18 98 1012.5
20260505162126 3 179 0.0 0.0 0.00 0.18 0.18 98 1012.7
20260505161623 3 259 0.0 0.0 0.00 0.18 0.18 98 1012.6
20260505161120 3 221 1.6 4.8 0.00 0.18 0.18 98 1012.6
20260505160618 3 255 0.0 0.0 0.00 0.18 0.18 98 1012.7
20260505160115 3 112 0.0 8.0 0.00 0.18 0.18 98 1012.5
20260505153055 3 99 0.0 4.8 0.00 0.15 0.15 98 1012.2
20260505152551 3 189 4.8 11.3 0.00 0.15 0.15 98 1012.1
20260505152047 3 98 0.0 3.2 0.00 0.15 0.15 98 1012.5
20260505151542 3 79 6.4 9.7 0.00 0.15 0.15 98 1012.5
20260505151040 3 197 0.0 12.9 0.00 0.15 0.15 98 1012.4
20260505150536 3 273 0.0 0.0 0.00 0.15 0.15 98 1012.5
20260505140502 4 197 0.0 0.0 0.00 0.15 0.15 99 1012.4
20260505124915 5 92 4.8 9.7 0.00 0.08 0.08 97 1011.5
20260505124412 5 86 4.8 9.7 0.13 0.08 0.08 97 1011.3
20260505123908 5 86 4.8 11.3 0.13 0.08 0.08 97 1011.4
20260505123405 5 86 8.0 11.3 0.00 0.05 0.05 97 1011.3
20260505122900 5 250 3.2 9.7 0.00 0.05 0.05 96 1011.1
20260505122358 5 89 4.8 8.0 0.00 0.05 0.05 96 1011.1
20260505121855 5 178 4.8 9.7 0.00 0.05 0.05 96 1011.1
20260505121352 5 202 0.0 0.0 0.00 0.05 0.05 95 1011.1
20260505120847 5 187 0.0 0.0 0.00 0.05 0.05 95 1011.3
20260505120344 5 265 0.0 0.0 0.00 0.05 0.05 95 1011.4
20260505115843 5 243 0.0 0.0 0.00 0.05 0.05 95 1011.1
20260505115340 5 246 0.0 0.0 0.00 0.05 0.05 94 1011.1
20260505114838 5 194 0.0 0.0 0.00 0.05 0.05 94 1011.1
20260505114334 5 187 12.9 16.1 0.00 0.05 0.05 93 1011.1
20260505113830 5 208 4.8 11.3 0.18 0.05 0.05 93 1011.1
20260505113327 6 164 4.8 4.8 0.36 0.05 0.05 93 1011.4
20260505112823 6 268 0.0 1.6 0.18 0.03 0.03 94 1011.4
20260505112321 6 275 0.0 0.0 0.00 0.00 0.00 94 1011.1
20260505111816 6 272 0.0 0.0 0.00 0.00 0.00 94 1011.4
20260505111312 5 288 0.0 0.0 0.00 0.00 0.00 93 1011.0
20260505110808 5 292 0.0 0.0 0.00 0.00 0.00 93 1011.4
20260505110305 5 286 0.0 0.0 0.00 0.00 0.00 93 1011.3
20260505101740 5 269 0.0 0.0 0.00 0.00 0.00 92 1011.0
20260505101235 6 272 0.0 0.0 0.00 0.00 0.00 92 1011.0
20260505100732 6 277 0.0 0.0 0.00 0.00 0.00 92 1011.1
20260505100229 6 285 0.0 0.0 0.00 0.00 0.00 91 1011.3
20260505095724 6 290 0.0 0.0 0.00 0.00 0.00 91 1011.1
20260505095222 6 290 0.0 0.0 0.00 0.00 0.00 90 1011.0
20260505094717 6 292 0.0 0.0 0.00 0.00 0.00 90 1011.5
20260505094214 6 290 1.6 1.6 0.00 0.00 0.00 88 1011.1
20260505093710 6 284 0.0 0.0 0.00 0.00 0.00 87 1011.3
20260505093208 6 284 0.0 0.0 0.00 0.00 0.00 87 1011.3
20260505092704 6 298 0.0 0.0 0.00 0.00 0.00 87 1011.1
20260505092204 6 301 0.0 0.0 0.00 0.00 0.00 86 1011.1
20260505091700 6 288 0.0 0.0 0.00 0.00 0.00 84 1011.3
20260505091158 5 312 0.0 0.0 0.00 0.00 0.00 84 1011.3
20260505090655 5 240 0.0 0.0 0.00 0.00 0.00 84 1011.5
20260505090154 5 273 0.0 0.0 0.00 0.00 0.00 85 1011.3
20260505085650 5 271 1.6 3.2 0.00 0.00 0.00 85 1011.4
20260505085149 5 279 0.0 0.0 0.00 0.00 0.00 85 1011.5
20260505084646 5 297 0.0 0.0 0.00 0.00 0.00 85 1011.3
20260505084144 5 284 0.0 0.0 0.00 0.00 0.00 85 1011.3
20260505083642 5 273 0.0 0.0 0.00 0.00 0.00 85 1011.1
20260505083138 5 274 1.6 1.6 0.00 0.00 0.00 84 1011.5
20260505082634 5 288 0.0 0.0 0.00 0.00 0.00 84 1011.1
20260505082131 5 288 0.0 0.0 0.00 0.00 0.00 84 1011.1
20260505081627 5 288 0.0 0.0 0.00 0.00 0.00 83 1011.1
20260505081125 5 290 0.0 0.0 0.00 0.00 0.00 84 1011.1
20260505080621 5 287 0.0 1.6 0.00 0.00 0.00 83 1011.3
20260505080117 5 292 4.8 4.8 0.00 0.00 0.00 83 1011.3
20260505075614 5 290 0.0 0.0 0.00 0.00 0.00 83 1011.5
20260505075110 5 280 0.0 0.0 0.00 0.00 0.00 82 1011.6
20260505074607 5 290 0.0 0.0 0.00 0.00 0.00 82 1011.5
20260505074104 5 276 0.0 0.0 0.00 0.00 0.00 82 1011.5
20260505073602 5 269 0.0 0.0 0.00 0.00 0.00 81 1011.5
20260505073100 6 278 1.6 1.6 0.00 0.00 0.00 81 1011.3
20260505072555 6 309 1.6 1.6 0.00 0.00 0.00 81 1011.5
20260505072052 7 312 0.0 1.6 0.00 0.00 0.00 80 1011.6
20260505071548 7 302 0.0 3.2 0.00 0.00 0.00 80 1011.5
20260505071046 7 285 0.0 0.0 0.00 0.00 0.00 79 1011.4
20260505070543 7 291 0.0 0.0 0.00 0.00 0.00 79 1011.5
20260505070039 7 266 0.0 3.2 0.00 0.00 0.00 79 1011.5
20260505065535 6 280 0.0 0.0 0.00 0.00 0.00 79 1011.1
20260505065032 6 275 0.0 0.0 0.00 0.00 0.00 79 1011.3
20260505064528 6 267 0.0 0.0 0.00 0.00 0.00 80 1011.1
20260505064027 5 82 8.0 12.9 0.00 0.00 0.00 80 1011.5
20260505063524 5 275 0.0 1.6 0.00 0.00 0.00 79 1011.1
20260505063020 6 296 0.0 0.0 0.00 0.00 0.00 79 1011.3
20260505062517 6 304 0.0 3.2 0.00 0.00 0.00 79 1011.3
20260505062014 6 226 0.0 3.2 0.00 0.00 0.00 79 1011.1
20260505061511 5 255 0.0 0.0 0.00 0.00 0.00 79 1011.3
20260505061009 5 296 0.0 0.0 0.00 0.00 0.00 78 1011.1
20260505060506 5 311 0.0 0.0 0.00 0.00 0.00 78 1011.4
20260505060002 5 314 0.0 0.0 0.00 0.00 0.00 77 1011.3
20260505055458 5 301 0.0 0.0 0.00 0.00 0.00 78 1011.3
20260505054955 5 296 0.0 0.0 0.00 0.00 0.00 78 1011.4
20260505054453 5 278 0.0 0.0 0.00 0.00 0.00 78 1010.9
20260505053950 5 264 0.0 0.0 0.00 0.00 0.00 77 1011.1
20260505053447 5 303 0.0 0.0 0.00 0.00 0.00 76 1011.3
20260505052944 5 280 0.0 0.0 0.00 0.00 0.00 75 1011.0
20260505052441 5 280 0.0 0.0 0.00 0.00 0.00 74 1011.4
20260505051938 6 273 0.0 0.0 0.00 0.00 0.00 73 1010.9
20260505051435 6 279 0.0 0.0 0.00 0.00 0.00 73 1011.4
20260505050933 6 280 0.0 0.0 0.00 0.00 0.00 72 1011.3
20260505050431 7 280 0.0 0.0 0.00 0.00 0.00 72 1011.5
20260505041359 8 303 1.6 3.2 0.00 0.00 0.00 68 1011.0
20260505040856 8 306 0.0 1.6 0.00 0.00 0.00 66 1010.8
20260505040353 8 302 0.0 0.0 0.00 0.00 0.00 68 1010.9
20260505035850 8 301 0.0 3.2 0.00 0.00 0.00 67 1011.0
20260505035345 10 290 0.0 3.2 0.00 0.00 0.00 64 1011.1
20260505034843 9 309 0.0 3.2 0.00 0.00 0.00 65 1011.0
20260505034339 8 313 1.6 1.6 0.00 0.00 0.00 66 1010.8
20260505033837 9 309 0.0 1.6 0.00 0.00 0.00 66 1010.8
20260505033334 9 8 6.4 8.0 0.00 0.00 0.00 66 1010.5
20260505032832 9 317 0.0 4.8 0.00 0.00 0.00 66 1010.5
20260505032328 8 247 1.6 9.7 0.00 0.00 0.00 66 1010.7
20260505031825 8 288 0.0 0.0 0.00 0.00 0.00 67 1010.5
20260505031321 9 288 0.0 0.0 0.00 0.00 0.00 66 1010.5
20260505030819 9 224 1.6 1.6 0.00 0.00 0.00 66 1010.7
20260505030315 9 299 0.0 0.0 0.00 0.00 0.00 67 1010.5
20260505025810 10 302 0.0 1.6 0.00 0.00 0.00 67 1010.3
20260505025308 10 276 0.0 1.6 0.00 0.00 0.00 65 1010.0
20260505024807 10 254 1.6 3.2 0.00 0.00 0.00 64 1010.3
20260505024304 10 97 3.2 8.0 0.00 0.00 0.00 64 1010.0
20260505023801 11 103 4.8 9.7 0.00 0.00 0.00 63 1010.0
20260505023258 11 90 3.2 4.8 0.00 0.00 0.00 62 1010.3
20260505022755 11 100 8.0 9.7 0.00 0.00 0.00 61 1010.0
20260505022252 11 2 6.4 12.9 0.00 0.00 0.00 61 1010.3
20260505021749 11 50 3.2 4.8 0.00 0.00 0.00 60 1010.3
20260505021246 11 144 3.2 4.8 0.00 0.00 0.00 61 1010.3
20260505020741 12 218 3.2 4.8 0.00 0.00 0.00 60 1010.0
20260505020237 12 258 4.8 11.3 0.00 0.00 0.00 59 1010.4
20260505015734 12 259 0.0 0.0 0.00 0.00 0.00 57 1010.3
20260505015231 12 277 0.0 4.8 0.00 0.00 0.00 56 1010.0
20260505014728 12 272 0.0 1.6 0.00 0.00 0.00 57 1010.4
20260505014226 12 281 0.0 0.0 0.00 0.00 0.00 58 1010.3
20260505013722 12 272 0.0 0.0 0.00 0.00 0.00 58 1010.3
20260505013219 12 121 1.6 3.2 0.00 0.00 0.00 59 1010.2
20260505012718 12 131 1.6 3.2 0.00 0.00 0.00 59 1010.3
20260505012215 12 101 4.8 4.8 0.00 0.00 0.00 59 1010.5
20260505011710 12 257 1.6 1.6 0.00 0.00 0.00 59 1010.5
20260505011208 12 124 3.2 4.8 0.00 0.00 0.00 59 1010.2
20260505010703 12 79 6.4 8.0 0.00 0.00 0.00 60 1010.4
20260505010200 12 295 0.0 0.0 0.00 0.00 0.00 60 1010.4
20260505005656 12 303 0.0 0.0 0.00 0.00 0.00 59 1010.4
20260505005153 12 290 0.0 0.0 0.00 0.00 0.00 59 1010.5
20260505004650 12 292 0.0 0.0 0.00 0.00 0.00 61 1010.4
20260505004146 12 290 0.0 0.0 0.00 0.00 0.00 61 1010.5
20260505003644 11 250 0.0 0.0 0.00 0.00 0.00 62 1010.5
20260505003142 11 82 8.0 12.9 0.00 0.00 0.00 62 1010.5
20260505002638 11 228 1.6 3.2 0.00 0.00 0.00 61 1010.8
20260505002136 11 307 4.8 4.8 0.00 0.00 0.00 62 1010.9
20260505001632 11 285 4.8 9.7 0.00 0.00 0.00 66 1011.1
20260505001130 11 294 4.8 9.7 0.00 0.00 0.00 66 1011.4
20260505000627 11 286 9.7 12.9 0.00 0.00 0.00 65 1011.6
20260505000125 11 284 3.2 9.7 0.00 0.00 0.00 67 1011.9
20260504235621 10 293 4.8 8.0 0.00 0.00 0.00 68 1012.0
20260504235117 10 288 6.4 17.7 0.00 0.00 0.00 68 1011.9
20260504234614 10 289 8.0 14.5 0.00 0.00 0.00 69 1011.7
20260504234112 10 312 9.7 16.1 0.00 0.00 0.00 69 1012.0
20260504233607 10 301 12.9 20.9 0.00 0.00 0.00 69 1012.0
20260504233104 10 287 11.3 16.1 0.00 0.00 0.00 70 1012.1
20260504232601 10 299 11.3 16.1 0.00 0.00 0.00 70 1011.6
20260504232059 11 274 14.5 16.1 0.00 0.00 0.00 64 1011.6
20260504231555 11 255 16.1 27.4 0.00 0.00 0.00 64 1011.6
20260504231051 11 265 11.3 20.9 0.00 0.00 0.00 67 1011.6
20260504230547 11 274 8.0 12.9 0.00 0.00 0.00 62 1011.7
20260504230047 11 285 11.3 17.7 0.00 0.00 0.00 61 1011.9
20260504225543 12 264 6.4 11.3 0.00 0.00 0.00 59 1011.7
20260504225040 12 220 12.9 20.9 0.00 0.00 0.00 56 1011.5
20260504224537 12 217 9.7 22.5 0.00 0.00 0.00 54 1011.5
20260504224034 13 225 17.7 24.1 0.00 0.00 0.00 52 1011.6
20260504223531 13 204 14.5 22.5 0.00 0.00 0.00 52 1011.4
20260504223027 13 194 16.1 22.5 0.00 0.00 0.00 52 1011.3
20260504222523 13 200 22.5 27.4 0.00 0.00 0.00 53 1011.5
20260504222021 13 214 14.5 25.7 0.00 0.00 0.00 55 1011.5
20260504221518 13 183 11.3 24.1 0.00 0.00 0.00 54 1011.4
20260504221015 14 197 11.3 25.7 0.00 0.00 0.00 51 1010.9
20260504220512 14 194 19.3 29.0 0.00 0.00 0.00 50 1011.3
20260504220009 15 205 11.3 22.5 0.00 0.00 0.00 50 1010.9
20260504215505 15 178 12.9 25.7 0.00 0.00 0.00 47 1011.0
20260504215003 15 174 14.5 24.1 0.00 0.00 0.00 47 1010.7
20260504214458 16 156 12.9 20.9 0.00 0.00 0.00 46 1010.7
20260504213955 16 133 11.3 20.9 0.00 0.00 0.00 46 1010.9
20260504213451 16 152 11.3 16.1 0.00 0.00 0.00 46 1010.5
20260504212949 17 202 6.4 9.7 0.00 0.00 0.00 42 1010.7
20260504212444 18 250 4.8 14.5 0.00 0.00 0.00 38 1010.7
20260504211942 18 280 3.2 8.0 0.00 0.00 0.00 37 1010.8
20260504211438 18 336 9.7 20.9 0.00 0.00 0.00 39 1010.7
20260504210936 18 273 9.7 12.9 0.00 0.00 0.00 38 1010.7
20260504210432 18 318 6.4 9.7 0.00 0.00 0.00 40 1011.0
20260504205929 17 325 11.3 16.1 0.00 0.00 0.00 39 1011.1
20260504205427 17 289 11.3 20.9 0.00 0.00 0.00 39 1011.0
20260504204925 17 318 11.3 14.5 0.00 0.00 0.00 41 1011.0
20260504204423 17 320 9.7 14.5 0.00 0.00 0.00 41 1011.3
20260504203922 17 315 8.0 22.5 0.00 0.00 0.00 41 1011.3
20260504203419 17 262 8.0 20.9 0.00 0.00 0.00 42 1011.3
20260504202915 17 332 14.5 22.5 0.00 0.00 0.00 40 1011.4
20260504202412 17 314 17.7 25.7 0.00 0.00 0.00 39 1011.6
20260504201909 17 314 14.5 20.9 0.00 0.00 0.00 40 1011.7
20260504201406 18 330 12.9 20.9 0.00 0.00 0.00 40 1011.5
20260504200903 17 5 14.5 32.2 0.00 0.00 0.00 39 1011.5
20260504200400 18 305 14.5 17.7 0.00 0.00 0.00 41 1011.5
20260504195856 18 330 11.3 17.7 0.00 0.00 0.00 42 1011.6